Temp_Advection
nan nan nan nan nan nan nan nan nan nan nan nan nan nan nan nan nan nan nan nan nan nan nan nan nan nan nan nan nan nan nan nan nan nan nan nan nan nan nan nan nan nan nan nan nan nan nan nan nan
nan 0 -0 -0 -0 -0 -0 0 0 -0 -0 -0 -0 0 0 -0 -0 0 -0 -0 0 0 -0 1 1 0 0 0 -0 0 0 0 0 0 0 0 -0 0 -0 -0 -0 -0 -0 -0 -0 -0 -0 -0 nan
nan -0 -1 -0 -0 -0 -0 0 -0 0 0 -0 -0 -0 -0 -0 -0 0 0 -0 0 0 -0 -0 1 1 0 0 0 0 0 0 0 0 -0 0 0 0 0 -0 -0 -0 -0 -0 -0 -0 -0 -0 nan
nan -0 -0 -0 -0 -0 -0 -0 -0 0 -0 0 0 -1 -1 0 0 -0 0 0 0 -0 0 -1 0 0 0 0 0 0 0 -0 0 1 0 0 0 0 0 -0 -0 -0 -0 -0 -0 -0 -0 -0 nan
nan -0 -0 -0 -0 -0 0 -0 -0 0 -0 -0 0 -0 -1 -0 0 0 0 0 0 -0 0 1 1 1 1 1 0 0 0 -0 0 0 1 0 0 0 0 0 -0 -0 -0 -0 -0 -0 -0 -0 nan
nan -0 -0 -0 0 -0 -0 -0 -0 0 0 0 0 -1 -0 0 0 0 0 0 0 0 0 1 2 2 1 1 1 0 0 0 1 -0 0 0 0 0 0 0 0 0 -0 -0 -0 -0 -0 -0 nan
nan -0 0 -0 0 -0 -0 -0 -0 -0 0 -0 0 -0 -0 0 0 0 0 0 0 0 0 1 1 1 2 1 1 1 0 1 0 0 0 0 0 0 0 0 0 0 0 0 -0 -0 -0 -0 nan
nan -0 0 0 -0 -0 -0 -0 -0 -0 -0 -0 0 0 -0 0 0 0 0 0 0 0 0 -0 -0 0 1 2 1 1 0 1 0 0 0 0 1 0 0 0 0 0 0 0 -0 -0 -0 -0 nan
nan -0 -0 0 0 0 -0 0 -0 0 0 -0 -0 0 0 0 0 0 0 0 0 1 0 1 0 0 1 2 1 1 1 1 0 0 0 1 0 0 0 0 0 0 0 -0 -0 -0 -0 -0 nan
nan -0 0 0 -0 0 0 0 -0 -0 -0 -0 -0 0 0 0 0 0 0 0 0 1 1 1 1 2 0 1 2 1 1 0 0 0 -0 -0 -0 -0 -0 0 0 0 0 0 0 -0 -0 -0 nan
nan -0 -0 0 -0 -0 0 0 -0 -0 0 0 -0 -0 0 0 0 0 0 1 1 1 2 2 1 1 1 1 1 1 1 0 0 -0 -0 -0 -0 -0 -0 0 -0 0 0 0 0 -0 -0 -0 nan
nan -0 -0 -0 -0 -0 -0 -0 -0 -0 -0 -0 -0 -0 -0 -0 -0 0 0 0 1 1 1 2 2 0 0 -0 0 1 1 1 0 0 1 1 0 0 0 -0 0 0 -0 0 0 -0 -0 -0 nan
nan -0 0 0 0 0 -0 0 -0 -0 -1 -0 -0 -0 -0 -0 -0 0 0 0 0 -0 -0 0 1 0 0 -1 -1 0 1 0 0 1 1 0 0 0 0 0 0 0 -0 0 0 0 -0 -0 nan
nan -0 0 -0 -0 -0 -0 -0 0 -1 -1 -0 -0 -0 -0 -0 -0 -0 -0 -1 0 0 -1 -1 -0 0 0 1 0 0 -0 -0 1 1 -0 -0 -0 0 0 0 0 0 0 0 0 0 0 -0 nan
nan -0 -0 -0 0 0 -0 -0 -1 -1 -1 -1 -0 -1 -0 -0 -1 -1 -0 -1 -1 -1 -0 -0 -1 0 0 -0 -1 -0 -0 0 0 -0 -0 0 -0 0 0 0 0 0 0 0 0 -0 0 -0 nan
nan 0 -0 -0 -0 -0 -0 -0 -0 -0 -0 -1 -0 -0 -1 -0 -0 -1 -1 -1 -1 -1 -1 -1 -0 -0 -0 -0 -0 -0 -0 0 -0 -1 0 0 0 0 0 0 0 0 0 0 0 0 0 -0 nan
nan 0 0 -0 -0 -0 -0 -0 -1 -0 -0 -0 -0 -1 -1 -1 -1 -0 -1 -1 -1 -1 -1 -1 -0 -0 -0 0 -0 0 0 0 -0 -0 -0 -0 0 0 0 0 0 0 0 -0 0 0 0 0 nan
nan -0 -0 -0 -0 -0 -0 0 -1 -0 0 -0 -0 -1 -1 -1 -1 -1 -1 -0 -0 -0 -0 -0 -0 -0 -0 -0 0 0 0 0 -0 -0 -0 0 0 0 0 0 0 0 0 0 0 0 0 0 nan
nan 0 -0 0 -0 -0 -0 0 -0 -1 -0 -0 -0 -0 -0 -0 -0 -0 -0 -0 -0 -0 -0 -0 -0 -0 0 -0 0 -0 0 -0 0 0 0 0 0 0 0 0 0 0 0 0 0 0 -0 -0 nan
nan -0 -0 0 -0 -0 -0 -0 0 -0 -0 -0 -0 -0 -0 -0 -0 -0 -0 -0 -1 -0 -0 -0 -0 -0 -0 -0 -0 0 0 -0 -0 -0 -0 0 0 0 0 0 0 0 0 0 0 0 0 0 nan
nan -0 0 -0 0 -0 -0 0 0 -0 -0 -0 -0 -0 -0 -0 -0 -0 -0 -0 -0 -0 -0 -0 -0 -0 -0 0 0 0 -0 -1 -1 -0 0 0 0 0 0 0 0 0 0 0 0 0 0 0 nan
nan 0 0 0 -0 0 -0 -0 -0 0 -0 -0 -0 -0 -0 -0 -0 -0 -0 -0 -0 -0 -0 -0 -0 -0 0 0 0 -0 -1 -1 -0 1 1 0 0 1 1 1 0 0 0 0 0 1 0 0 nan
nan 0 -0 -0 0 0 -0 -0 -0 -0 -1 -1 -1 -1 -0 -0 -0 -0 -0 -0 -0 0 0 -0 -0 0 0 0 -1 -1 0 1 1 0 0 0 1 1 1 0 0 0 0 1 1 0 0 -0 nan
nan -0 0 0 0 0 0 -0 -0 -0 -0 -0 -0 -0 -0 -0 0 0 0 0 0 0 0 -0 1 0 0 -1 -1 0 1 1 1 -0 -1 0 1 1 0 0 0 0 1 1 1 0 -0 0 nan
nan 0 0 0 0 -0 0 -0 -1 -0 0 0 0 0 1 0 0 0 0 0 0 1 0 1 -1 -1 -0 -1 0 0 0 0 0 0 0 0 1 1 1 1 0 1 1 1 0 -0 0 0 nan
nan 0 0 0 0 0 -0 -0 -0 -0 0 0 0 0 0 0 0 0 -0 0 1 1 1 -0 -0 0 -0 0 -0 -0 1 1 2 0 -1 1 1 1 1 0 1 1 1 1 0 0 0 0 nan
nan -0 0 -0 -0 -0 -0 -0 -0 0 0 0 0 0 -0 0 0 0 1 1 1 1 1 1 1 -0 0 0 -0 0 1 1 1 -0 0 1 1 1 0 0 1 1 1 0 0 0 0 1 nan
nan -0 0 -0 -0 -0 0 -0 -0 -0 0 0 0 -0 -0 0 0 0 1 1 1 1 1 1 0 -0 1 1 0 0 1 1 1 1 0 0 1 1 -0 0 1 1 1 1 1 1 1 1 nan
nan -0 -0 0 0 0 -0 -0 -0 -0 -0 -0 0 0 -0 0 0 0 0 1 1 1 1 0 0 0 1 0 -0 0 0 0 1 -0 -0 1 1 1 0 1 1 1 1 1 2 1 0 0 nan
nan nan nan nan nan nan nan nan nan nan nan nan nan nan nan nan nan nan nan nan nan nan nan nan nan nan nan nan nan nan nan nan nan nan nan nan nan nan nan nan nan nan nan nan nan nan nan nan nan
Wind_Speed
3 2 3 4 7 6 11 7 4 2 5 2 2 6 4 9 2 1 1 19 25 28 30 33 31 31 32 32 30 27 24 22 24 25 25 25 25 25 26 27 26 24 23 23 22 21 20 19 19
1 2 3 4 8 9 10 3 7 3 4 1 1 3 4 5 3 5 6 18 23 30 29 32 33 33 32 31 29 27 25 26 28 27 27 27 27 27 28 27 25 24 24 23 21 19 19 18 18
2 4 9 4 7 10 1 3 3 3 3 5 2 4 4 5 3 3 6 14 24 29 26 30 35 34 32 30 29 28 28 29 28 28 28 28 28 28 27 26 24 23 23 21 19 18 18 18 18
1 3 5 9 9 4 7 4 6 4 3 3 4 10 7 3 4 1 10 15 29 30 28 33 34 33 32 31 30 29 31 31 29 30 29 29 28 28 26 25 23 22 21 20 19 18 19 17 17
2 5 7 6 5 3 4 5 5 3 2 2 4 7 8 4 7 11 14 21 33 30 30 33 33 33 32 31 29 30 31 30 30 31 31 29 29 27 26 24 23 21 20 20 18 18 17 16 15
6 4 7 4 3 1 4 4 4 2 1 3 3 5 4 4 12 12 16 20 25 29 26 32 30 32 31 29 28 30 31 31 33 32 31 30 28 25 24 23 21 20 18 17 17 16 14 12 12
8 6 4 2 2 4 5 4 3 3 2 4 1 2 4 6 9 13 14 16 22 23 28 32 32 30 27 27 27 32 30 31 34 32 31 29 26 25 23 21 19 17 15 14 12 12 10 10 11
5 4 2 1 6 7 6 1 1 2 3 2 2 4 5 10 11 10 10 13 19 22 26 33 35 35 35 30 27 28 29 30 33 32 30 28 25 22 20 17 16 14 13 12 10 9 9 8 8
4 5 1 2 6 9 3 3 1 1 3 2 1 1 8 15 12 10 9 10 11 23 25 35 36 34 37 38 26 24 26 27 30 31 28 26 22 19 17 15 14 12 10 10 9 8 6 6 7
7 4 2 3 6 8 4 4 3 4 5 3 6 9 15 15 10 10 10 12 16 24 34 41 40 40 42 35 36 24 23 27 30 31 28 19 20 18 16 15 11 9 8 9 7 5 4 6 5
1 4 5 5 6 8 5 3 2 2 5 1 10 16 16 13 11 12 13 14 19 25 37 38 40 46 44 38 36 27 27 29 30 30 26 22 21 17 15 14 11 8 8 8 5 3 2 2 4
7 6 8 8 5 4 3 3 2 4 5 1 16 18 17 15 14 14 16 19 29 32 36 44 44 45 42 37 30 28 27 24 22 21 24 22 18 16 13 11 10 9 8 5 2 0 2 4 6
8 8 9 7 4 1 1 2 3 5 10 14 15 15 16 14 15 16 18 20 29 31 35 38 36 33 37 38 34 34 28 23 24 28 22 17 16 15 13 12 10 9 7 3 2 2 1 5 8
4 7 3 3 2 2 2 2 3 8 11 12 11 10 10 13 17 19 22 24 27 33 41 40 43 42 39 39 34 32 21 24 26 20 17 19 15 14 13 10 9 9 7 5 3 3 2 3 8
4 5 4 5 1 1 4 6 7 14 12 13 13 12 9 9 14 16 17 19 24 29 28 36 42 32 34 24 19 18 19 23 18 16 19 17 16 14 12 11 10 9 8 8 6 2 3 7 9
5 8 4 13 6 3 8 8 10 14 14 13 12 13 11 9 12 14 16 21 26 24 29 34 27 22 20 20 24 21 20 23 17 20 20 17 17 15 13 12 11 11 10 8 6 5 3 4 3
6 2 2 10 9 2 10 4 13 14 14 14 13 14 13 11 12 15 22 24 27 28 29 32 24 18 17 16 17 19 21 22 19 21 19 17 16 13 16 13 13 12 11 11 9 3 2 3 3
4 2 6 6 11 10 8 5 12 16 15 15 13 16 15 16 17 19 22 26 26 25 26 25 23 21 18 17 19 17 20 20 21 21 20 18 16 15 16 16 15 15 14 11 7 5 6 6 8
3 3 4 2 4 7 10 10 10 16 16 16 16 16 17 17 18 20 22 25 25 24 23 23 22 20 21 18 18 17 20 19 22 21 21 20 17 16 18 19 17 17 13 12 11 8 6 7 10
6 5 5 2 1 6 4 7 7 15 18 17 17 19 19 18 19 21 24 27 30 28 26 24 24 22 21 18 18 19 19 19 20 23 23 22 18 18 20 19 18 18 17 16 12 9 6 4 7
8 8 3 6 2 5 5 6 8 11 14 15 17 16 18 20 21 22 25 28 29 30 29 28 25 22 21 21 19 19 18 24 25 26 25 25 22 22 21 21 22 21 19 17 14 12 9 6 8
9 5 3 4 6 3 3 3 7 9 13 16 20 21 22 22 22 23 24 27 29 30 29 28 26 25 24 24 22 24 23 23 27 30 25 28 26 25 25 24 24 22 20 19 17 14 8 11 7
5 4 1 3 4 4 5 7 8 5 10 16 23 25 25 26 26 27 28 27 26 27 29 29 28 27 27 26 26 27 28 24 25 26 28 28 28 28 28 26 25 23 22 22 20 12 9 11 14
7 5 2 3 3 6 4 5 3 8 6 5 14 25 27 28 28 28 27 25 26 27 28 30 30 26 23 23 29 29 31 30 32 27 28 31 30 30 30 27 25 25 25 23 18 13 13 9 9
9 8 6 7 6 7 3 6 10 3 4 7 9 11 25 30 28 28 27 29 29 30 29 30 28 27 27 28 24 34 36 32 34 34 34 33 34 31 29 29 30 29 27 23 18 15 12 14 12
13 11 5 4 5 3 3 5 1 2 6 10 12 14 12 18 28 31 31 30 29 29 29 31 34 34 32 26 31 32 33 33 35 30 33 34 33 29 28 32 32 30 25 22 19 15 14 12 13
7 9 2 1 2 4 5 6 11 3 3 3 4 4 10 14 18 24 28 30 27 27 30 30 31 33 34 23 14 32 32 27 27 31 31 33 31 32 31 32 33 29 26 23 20 16 11 11 12
5 10 6 4 6 7 5 6 4 4 2 0 2 2 2 4 6 11 15 19 25 26 25 24 25 27 30 34 25 25 22 21 22 27 30 31 33 33 33 30 31 32 27 24 18 14 11 10 10
6 7 3 2 3 5 5 5 3 6 3 5 2 4 5 3 1 4 7 11 15 18 20 21 22 22 24 26 34 29 23 20 22 26 25 25 29 31 30 31 32 32 29 22 20 11 10 7 10
9 10 13 7 7 3 3 7 6 8 5 8 6 5 5 5 3 2 5 8 10 13 15 16 17 20 21 22 21 19 19 19 23 23 23 27 29 29 30 31 33 32 24 22 16 14 11 10 13
Wind_Direction
305 282 203 221 236 236 244 221 315 223 225 44 272 228 207 19 281 269 138 182 160 164 164 169 168 170 168 167 166 165 165 164 156 148 145 140 139 136 129 124 119 115 115 114 109 108 102 98 92
258 199 221 253 254 219 217 113 209 11 13 108 320 145 172 119 88 114 100 167 175 170 168 167 170 170 167 165 165 167 167 160 152 151 145 142 140 133 127 122 119 116 116 117 112 107 101 96 89
219 182 259 257 252 246 357 140 317 297 293 210 208 44 66 349 3 123 17 176 181 172 164 169 173 171 169 169 170 169 163 156 153 151 146 143 139 132 127 124 123 119 115 115 111 105 99 94 85
206 221 228 252 243 252 288 21 342 257 192 207 175 110 79 216 15 318 189 179 184 171 163 173 173 173 172 172 170 166 160 157 156 152 148 144 139 134 131 127 125 122 117 114 108 104 98 90 82
223 248 258 252 258 259 280 315 324 224 95 130 250 118 107 99 138 156 160 175 179 170 173 171 173 174 173 172 168 162 158 157 157 153 149 144 138 137 134 130 127 123 119 113 107 104 101 93 85
231 275 245 246 171 283 359 339 299 289 170 106 157 106 89 133 170 163 166 175 176 177 173 169 175 173 170 168 165 159 161 160 158 155 150 145 140 137 134 129 126 122 119 114 108 105 102 97 81
284 273 336 292 48 96 20 332 305 278 209 100 107 81 131 134 149 171 182 187 185 184 170 172 171 164 165 161 165 161 162 161 159 156 151 144 143 140 136 132 128 124 122 120 113 113 104 92 73
271 272 242 72 13 52 24 27 309 322 66 108 124 164 172 172 165 181 182 181 188 191 173 183 175 171 158 155 160 160 158 162 161 154 151 148 144 142 137 134 131 130 128 126 119 115 100 78 59
241 250 167 24 343 6 25 273 147 146 150 115 8 118 169 167 171 187 193 187 195 182 185 184 178 173 161 147 150 154 157 165 158 155 154 147 143 142 130 148 141 135 133 129 121 104 85 54 35
248 266 71 356 320 326 329 293 168 219 179 112 102 130 158 160 163 187 187 193 161 168 168 171 167 170 150 155 148 144 150 160 160 161 158 152 153 147 148 152 146 140 141 128 112 85 70 62 51
214 306 357 297 319 297 315 246 170 246 232 274 157 143 147 144 136 141 150 167 177 177 160 167 161 146 145 145 135 155 165 163 164 170 170 170 166 161 161 161 156 157 147 135 108 86 83 25 39
268 256 306 313 320 304 309 137 119 40 358 96 150 156 144 138 133 135 139 153 149 143 147 141 141 144 145 139 162 155 157 150 160 176 182 177 174 174 169 167 174 167 156 150 135 325 341 343 352
257 306 319 301 276 271 97 63 49 71 94 114 142 158 146 138 136 142 137 149 159 149 144 137 136 145 154 155 157 150 142 160 183 189 181 181 183 183 181 183 179 172 179 191 234 282 326 353 343
338 312 17 57 133 135 199 142 209 114 126 126 124 143 162 153 152 146 146 142 144 142 143 145 147 156 159 153 156 167 175 186 186 184 187 190 187 192 198 195 195 194 197 220 198 170 92 336 329
276 208 75 62 9 265 213 177 104 138 133 133 133 142 141 141 151 162 162 167 158 148 153 145 147 145 156 174 187 188 198 194 189 188 191 193 199 204 207 209 208 208 233 231 231 223 288 325 333
233 241 116 270 249 203 225 108 148 154 146 145 149 149 150 164 154 158 156 152 162 165 160 161 164 170 174 175 188 200 197 192 189 199 202 204 210 207 207 210 216 231 226 204 198 226 324 342 343
194 203 300 157 232 237 234 81 158 172 164 153 162 161 170 176 167 165 164 157 156 159 163 176 187 188 189 201 207 205 199 196 203 206 214 216 214 215 214 220 228 232 224 215 220 243 284 318 340
140 185 195 156 191 232 234 259 160 178 187 177 180 186 186 187 186 178 179 180 176 178 180 190 195 200 205 208 209 199 200 203 208 214 213 217 222 224 224 229 233 226 214 218 222 250 281 320 351
238 233 301 48 135 263 254 261 184 185 198 199 199 200 201 200 196 195 192 193 192 195 197 201 205 210 211 206 203 202 205 208 212 213 215 219 225 228 229 230 226 215 211 221 233 247 292 322 339
222 232 218 250 125 235 256 256 202 191 205 206 204 205 212 208 204 203 202 203 204 206 206 206 209 216 212 212 209 208 215 216 217 219 221 224 228 231 227 228 222 218 224 227 236 254 266 263 310
218 254 231 295 169 233 251 219 203 210 215 213 218 215 209 207 206 208 209 210 212 212 213 214 216 216 217 211 211 213 211 225 224 225 227 228 228 233 230 225 223 221 222 235 241 247 275 251 297
218 192 271 264 227 245 232 222 190 197 213 218 222 218 216 211 211 211 213 214 214 216 217 220 220 220 221 215 213 215 224 232 237 235 226 227 229 229 226 225 222 225 233 238 244 246 286 334 282
230 170 275 309 246 272 196 271 118 196 221 217 218 218 218 215 212 213 213 216 215 214 215 218 219 220 220 218 218 229 235 232 243 240 232 230 230 231 225 225 229 233 238 241 240 257 293 305 297
142 182 198 208 238 243 211 267 233 182 227 232 215 217 220 220 222 222 220 217 216 213 213 220 218 217 223 222 230 239 244 237 236 235 237 236 236 233 228 230 233 235 236 237 241 252 285 293 275
209 212 206 220 197 243 130 236 264 244 233 261 272 246 220 220 221 226 222 218 216 215 213 218 212 212 234 227 235 235 246 243 251 250 247 242 242 238 239 233 231 234 235 236 245 268 279 304 274
209 222 225 219 214 194 157 238 225 15 294 283 271 253 241 224 224 227 226 224 223 218 217 220 225 214 223 225 245 247 243 247 250 243 252 253 249 249 244 237 233 233 234 244 255 264 271 274 254
172 220 283 172 16 262 241 234 255 201 220 258 321 231 223 232 228 228 230 229 226 223 220 221 220 218 223 195 201 249 250 250 242 244 252 250 249 245 237 238 235 237 238 244 256 265 267 246 260
268 139 182 209 222 235 192 256 256 230 169 70 322 52 144 195 221 224 221 220 222 224 224 217 218 218 220 211 219 235 253 254 252 252 253 250 246 240 238 239 238 236 239 247 249 256 235 248 249
175 201 228 275 265 253 266 256 203 249 258 283 281 296 317 338 215 199 195 196 204 208 211 213 213 212 215 215 228 241 247 251 249 249 249 248 249 247 241 242 240 238 237 244 239 225 231 252 261
256 237 216 230 208 237 277 273 225 249 275 262 253 255 277 284 291 214 176 174 181 190 197 204 205 209 213 214 222 233 242 238 244 249 250 249 248 251 243 240 237 236 239 230 230 214 249 277 289
Height
1516 1516 1517 1518 1513 1502 1494 1492 1491 1490 1491 1497 1497 1496 1493 1501 1497 1502 1507 1509 1511 1515 1519 1523 1527 1532 1534 1537 1542 1546 1548 1550 1552 1554 1557 1559 1561 1562 1564 1567 1569 1570 1571 1573 1574 1575 1576 1576 1575
1516 1516 1518 1513 1506 1499 1488 1489 1490 1492 1495 1500 1500 1498 1497 1506 1507 1505 1506 1508 1512 1515 1519 1523 1528 1531 1536 1539 1543 1546 1549 1552 1553 1557 1558 1560 1563 1565 1567 1570 1572 1572 1573 1575 1577 1578 1578 1579 1578
1516 1516 1515 1503 1497 1494 1486 1491 1492 1495 1498 1498 1498 1500 1501 1507 1505 1501 1501 1509 1514 1516 1519 1524 1528 1532 1537 1540 1543 1547 1549 1553 1555 1557 1559 1562 1565 1568 1569 1570 1573 1574 1576 1577 1580 1581 1580 1581 1579
1518 1518 1516 1505 1496 1491 1495 1493 1496 1495 1497 1498 1496 1499 1508 1501 1502 1503 1503 1504 1514 1516 1520 1524 1530 1534 1537 1541 1544 1547 1549 1553 1556 1559 1560 1564 1568 1570 1571 1572 1575 1577 1578 1580 1582 1583 1583 1583 1583
1518 1514 1503 1501 1497 1495 1496 1497 1499 1496 1496 1498 1498 1498 1508 1508 1506 1506 1506 1510 1514 1516 1519 1524 1530 1534 1538 1542 1544 1547 1551 1554 1558 1561 1563 1566 1569 1572 1573 1575 1577 1579 1580 1581 1583 1584 1584 1585 1586
1514 1513 1502 1498 1494 1495 1498 1501 1500 1498 1499 1501 1499 1497 1506 1509 1511 1508 1508 1511 1514 1516 1520 1524 1530 1534 1537 1542 1546 1548 1553 1554 1559 1562 1565 1568 1571 1573 1576 1578 1581 1581 1583 1583 1584 1586 1587 1588 1587
1514 1506 1500 1498 1496 1494 1500 1502 1501 1499 1499 1501 1504 1501 1509 1508 1508 1509 1510 1513 1514 1517 1519 1522 1528 1534 1538 1542 1548 1549 1554 1557 1560 1563 1568 1570 1572 1575 1578 1581 1582 1584 1585 1586 1586 1587 1589 1589 1588
1515 1509 1501 1499 1495 1498 1502 1503 1504 1502 1502 1505 1505 1501 1509 1508 1510 1511 1512 1513 1515 1517 1520 1520 1526 1532 1536 1542 1550 1552 1555 1561 1563 1566 1572 1572 1575 1578 1579 1582 1584 1586 1587 1587 1588 1588 1589 1590 1590
1515 1504 1500 1499 1497 1499 1501 1500 1504 1505 1504 1505 1506 1505 1506 1509 1510 1512 1513 1514 1514 1515 1518 1520 1524 1532 1537 1540 1548 1554 1556 1565 1567 1569 1573 1576 1577 1581 1582 1583 1585 1586 1588 1588 1589 1590 1590 1591 1590
1510 1502 1499 1500 1499 1499 1500 1500 1502 1503 1502 1504 1505 1506 1508 1510 1510 1512 1513 1513 1514 1517 1517 1517 1522 1528 1534 1542 1542 1552 1557 1563 1568 1571 1573 1577 1578 1581 1582 1584 1586 1588 1589 1589 1590 1591 1591 1591 1592
1508 1499 1501 1499 1502 1501 1499 1500 1503 1503 1499 1501 1506 1508 1510 1511 1512 1513 1513 1514 1515 1516 1518 1519 1523 1528 1533 1545 1543 1556 1560 1564 1570 1572 1573 1575 1577 1581 1582 1584 1586 1588 1590 1590 1590 1591 1592 1591 1591
1509 1504 1503 1502 1503 1502 1500 1502 1502 1506 1508 1506 1507 1510 1512 1513 1515 1515 1515 1516 1516 1518 1520 1521 1525 1530 1538 1544 1551 1555 1560 1565 1570 1573 1575 1577 1579 1582 1583 1584 1586 1587 1589 1589 1590 1590 1590 1590 1589
1508 1504 1504 1503 1504 1503 1504 1503 1503 1507 1509 1509 1510 1510 1513 1515 1516 1517 1518 1519 1520 1520 1523 1526 1531 1538 1543 1545 1550 1554 1560 1568 1572 1573 1576 1578 1580 1581 1582 1584 1585 1586 1588 1589 1589 1589 1589 1589 1589
1507 1506 1504 1504 1504 1503 1503 1503 1504 1511 1512 1512 1513 1514 1515 1517 1518 1520 1522 1524 1525 1527 1529 1532 1535 1543 1547 1551 1555 1561 1565 1568 1571 1573 1574 1577 1579 1580 1583 1583 1584 1586 1587 1587 1589 1588 1588 1589 1588
1506 1503 1499 1502 1504 1502 1502 1499 1500 1510 1513 1513 1514 1517 1518 1518 1521 1523 1525 1528 1530 1533 1535 1538 1542 1548 1553 1558 1561 1563 1565 1567 1571 1573 1575 1576 1577 1580 1580 1581 1583 1584 1584 1585 1586 1586 1586 1588 1586
1501 1498 1505 1505 1503 1502 1501 1495 1504 1509 1511 1513 1515 1518 1520 1522 1523 1526 1528 1530 1534 1536 1539 1543 1546 1550 1553 1556 1559 1562 1564 1567 1570 1571 1573 1574 1576 1577 1578 1579 1581 1582 1583 1583 1583 1584 1585 1586 1585
1495 1495 1497 1502 1498 1500 1499 1493 1502 1509 1511 1513 1515 1518 1521 1523 1525 1527 1530 1533 1535 1538 1541 1544 1547 1551 1554 1557 1559 1560 1563 1565 1568 1569 1571 1572 1574 1574 1577 1576 1577 1579 1581 1581 1582 1581 1584 1584 1584
1495 1495 1490 1491 1497 1497 1494 1490 1499 1506 1509 1511 1514 1517 1520 1523 1525 1528 1530 1533 1536 1539 1542 1545 1548 1550 1553 1555 1557 1559 1561 1563 1564 1567 1568 1571 1571 1572 1573 1573 1574 1577 1577 1578 1578 1580 1582 1581 1580
1491 1493 1492 1487 1492 1494 1489 1487 1494 1502 1507 1509 1512 1513 1515 1518 1522 1525 1529 1531 1534 1538 1540 1544 1546 1547 1550 1554 1556 1558 1560 1561 1562 1564 1565 1568 1568 1568 1570 1570 1571 1573 1574 1576 1577 1578 1579 1578 1577
1494 1493 1492 1490 1494 1495 1488 1486 1487 1496 1500 1504 1506 1509 1511 1515 1518 1522 1526 1528 1529 1533 1535 1539 1542 1545 1547 1552 1553 1557 1559 1558 1561 1562 1563 1564 1564 1566 1567 1567 1568 1570 1571 1574 1575 1575 1575 1576 1574
1492 1491 1491 1494 1492 1492 1490 1487 1489 1491 1496 1499 1501 1504 1507 1510 1513 1517 1520 1522 1526 1529 1532 1534 1538 1542 1544 1547 1551 1553 1554 1554 1555 1556 1558 1559 1561 1563 1564 1565 1565 1566 1568 1570 1571 1571 1571 1571 1569
1491 1487 1492 1492 1493 1491 1490 1486 1483 1483 1489 1492 1494 1498 1501 1503 1507 1511 1514 1517 1520 1524 1528 1530 1534 1537 1539 1542 1546 1547 1548 1550 1550 1552 1554 1555 1556 1558 1560 1561 1562 1563 1564 1567 1568 1567 1567 1566 1566
1486 1489 1490 1489 1489 1492 1488 1487 1480 1485 1482 1481 1486 1489 1492 1496 1499 1503 1506 1510 1515 1519 1521 1524 1528 1531 1535 1537 1540 1542 1544 1546 1547 1548 1549 1551 1553 1555 1556 1557 1558 1559 1561 1563 1564 1564 1563 1562 1561
1487 1487 1489 1489 1489 1499 1485 1488 1476 1474 1472 1470 1474 1481 1485 1489 1492 1496 1501 1506 1509 1512 1514 1516 1519 1527 1534 1536 1537 1539 1538 1541 1541 1543 1544 1545 1547 1549 1550 1553 1555 1556 1557 1558 1559 1559 1557 1556 1556
1485 1485 1492 1497 1497 1500 1490 1492 1474 1467 1468 1471 1471 1472 1476 1481 1486 1489 1493 1497 1501 1504 1506 1509 1513 1519 1523 1526 1530 1532 1533 1535 1535 1537 1538 1539 1540 1543 1546 1548 1549 1551 1552 1554 1554 1553 1553 1551 1550
1480 1479 1489 1506 1502 1487 1494 1490 1472 1467 1470 1471 1470 1470 1472 1475 1479 1482 1485 1489 1493 1497 1500 1502 1505 1509 1506 1518 1525 1526 1526 1527 1528 1531 1531 1534 1535 1538 1540 1542 1544 1546 1547 1548 1549 1548 1547 1545 1546
1480 1485 1477 1491 1500 1495 1481 1476 1467 1468 1467 1468 1467 1467 1468 1470 1472 1475 1479 1483 1487 1490 1492 1495 1499 1503 1507 1514 1516 1517 1518 1519 1521 1524 1526 1528 1531 1533 1535 1537 1538 1540 1543 1544 1543 1543 1543 1542 1542
1475 1474 1487 1484 1501 1502 1480 1481 1471 1465 1466 1466 1464 1464 1465 1466 1467 1469 1472 1476 1480 1484 1487 1490 1493 1498 1501 1506 1509 1511 1513 1514 1516 1518 1520 1522 1525 1527 1528 1531 1533 1534 1536 1537 1540 1538 1538 1540 1540
1478 1476 1477 1475 1481 1490 1493 1479 1462 1463 1464 1464 1465 1466 1465 1465 1465 1466 1468 1471 1474 1478 1482 1485 1489 1495 1499 1502 1503 1507 1509 1511 1513 1514 1515 1516 1518 1520 1522 1524 1527 1529 1530 1532 1532 1535 1537 1536 1536
1461 1464 1468 1479 1483 1485 1489 1480 1459 1460 1464 1465 1465 1466 1466 1465 1465 1466 1467 1467 1469 1473 1478 1482 1486 1491 1495 1499 1501 1502 1505 1507 1508 1510 1511 1512 1513 1514 1516 1518 1521 1523 1525 1528 1531 1530 1531 1532 1530